Aurora, CO (80015)

4:01 AM MST on December 07, 2016 (GMT -0700)
TigerDenWX | | Change Station

Elev 5715 ft 39.64 °N, 104.79 °W | Updated 3 seconds ago

Overcast
Overcast
16.7 °F
Feels Like 17 °F
N
0.0
Wind Variable Wind from North
Gusts 2.0 mph

Today
High -- | Low -- °F
--% Chance of Precip.
Yesterday
High -- | Low -- °F
Precip. -- in
Pressure 30.09 in
Visibility 10.0 miles
Clouds Overcast 3400 ft
Windchill 17 °F
Dew Point 12 °F
Humidity 83%
Rainfall 0.00 in
Snow Depth Not available.
7:06 AM 4:34 PM
Waxing Crescent, 51% visible
METAR KAPA 071053Z 06003KT 10SM OVC034 M10/M12 A2991 RMK AO2 SLP190 T11001122
Pressure 30.09 in
Visibility 10.0 miles
Clouds Overcast 3400 ft
Windchill 17 °F
Dew Point 12 °F
Humidity 83%
Rainfall 0.00 in
Snow Depth Not available.
7:06 AM 4:34 PM
Waxing Crescent, 51% visible
METAR KAPA 071053Z 06003KT 10SM OVC034 M10/M12 A2991 RMK AO2 SLP190 T11001122

10-Day Weather Forecast

Almanac

Astronomy

Dec. 07, 2016 Rise Set
Actual Time
Civil Twilight
Nautical Twilight
Astronomical Twilight
Moon
Length of Visible Light
Length of Day
Tomorrow will be .
, % of the Moon is Illuminated

Today's Extremes

State Highs State Lows

Community

WunderPhotos

Upload Photos

1,956,111 photos uploaded!

WunderBlog® & News

Nearby

Air Quality

  Air Quality AQ Index Pollutant
Not available.

Snow Depth

Station Depth Elevation

Earthquake Activity

City Distance Mag. Time & Date
Minimum magnitude displayed is 2.5.

Coastal Water Temperatures

Place Temperature

Stations

Nearby Weather Stations

Station Location Temp. Windchill Dew Point Humidity Wind Precip. Elev Updated Type
                   

Watches & Warnings

Winter Weather Advisory
Issued: 5:23 PM MST Dec. 6, 2016 – National Weather Service

... Winter Weather Advisory remains in effect until noon MST
Wednesday...

* timing... light snow will start around rush hour and increase
in intensity through the evening and continue through
Wednesday afternoon.

* Snow accumulations... snowfall amounts of 2 to 5 inches will be
possible with higher amounts west of I-25.

* Impacts... roads will become snowpacked and slippery. Travel will
be hazardous tonight and Wednesday morning due to snowpacked
roads and reduced visibility.

Precautionary/preparedness actions...

A Winter Weather Advisory for snow means that periods of snow
will cause primarily travel difficulties. Be prepared for snow
covered roads and limited visibilities... and use caution while
driving.